Regional Weather Roundup
Issued by NWS

Home | Current Version | Previous Version | Text Only | Print | Product List | Glossary Off
Versions: 1 2 3 4 5 6 7 8 9 10 11 12 13 14 15 16 17 18 19 20 21 22 23 24 25 26 27 28 29 30 31 32 33 34 35 36 37 38 39 40 41 42 43 44 45 46 47 48 49 50

000
ASUS43 KFSD 011510
RWRSD

WEATHER ROUNDUP FOR SOUTH DAKOTA
NATIONAL WEATHER SERVICE SIOUX FALLS SD
1000 AM CDT SAT OCT 01 2016

NOTE: "FAIR" INDICATES FEW OR NO CLOUDS BELOW 12,000 FEET WITH NO
SIGNIFICANT WEATHER AND/OR OBSTRUCTIONS TO VISIBILITY.


SDZ001>005-009-010-012>017-011600-
NORTHWEST AND NORTH CENTRAL SOUTH DAKOTA

CITY           SKY/WX    TMP DP  RH WIND       PRES   REMARKS
BUFFALO          N/A     60  49  66 CALM      29.93F
FAITH            N/A     61  48  62 S10       29.99S
MOBRIDGE       MOSUNNY   62  46  55 SE18      30.00R
$$

SDZ012>016-024>037-041>051-057-063-072>074-011600-
SOUTHWEST AND SOUTH CENTRAL SOUTH DAKOTA

CITY           SKY/WX    TMP DP  RH WIND       PRES   REMARKS
RAPID CTY ARPT SUNNY     67  52  58 W3        30.01S
PIERRE         MOSUNNY   59  46  62 SE15      30.01S
CUSTER         SUNNY     64  45  49 CALM      30.12S
ELLSWORTH AFB  SUNNY     65  51  60 VRB2      30.00S
PHILIP         CLOUDY    62  49  62 S5        30.00S
PINE RIDGE     SUNNY     62  48  60 S12       30.03S
WINNER         FAIR      62  46  55 S16       30.05S
$$

SDZ004>011-016>023-039-040-011600-
NORTHEAST SOUTH DAKOTA

CITY           SKY/WX    TMP DP  RH WIND       PRES   REMARKS
ABERDEEN       MOSUNNY   61  50  67 S12       30.11R
WATERTOWN      SUNNY     60  53  77 S6        30.14F
BROOKINGS      MOSUNNY   61  54  77 S5        30.15S
SISSETON         N/A     58  50  75 S9        30.14F
$$

SDZ017-020-022-023-036>040-048>070-011600-
SOUTHEAST SOUTH DAKOTA

CITY           SKY/WX    TMP DP  RH WIND       PRES   REMARKS
SIOUX FALLS    CLOUDY    59  54  83 CALM      30.16S
HURON          MOSUNNY   62  51  67 S12       30.11S
CHAMBERLAIN    SUNNY     65  48  54 SE13G18   30.08R
MITCHELL       SUNNY     58  49  72 S9        30.13S
YANKTON        PTSUNNY   55  52  88 CALM      30.13S
$$

ABBREVIATIONS USED IN REMARKS
   TC - TEMPERATURE IN CELSIUS
  WCI - WIND CHILL INDEX
   HX - HEAT INDEX
  VSB - VISIBILITY




USA.gov is the U.S. government's official web portal to all federal, state and local government web resources and services.